軌道要素
Epoch 2021 July 5.0 TT = JDT 2459400.5
T 2022 Jan. 11.64365 TT Rudenko
q 1.0731938 (2000.0) P Q
n 0.17147477 Peri. 227.22141 +0.26954945 -0.96191282
a 3.2087501 Node 207.23995 +0.90998623 +0.26987612
e 0.6655415 Incl. 5.70023 +0.31506849 +0.04348106
P 5.75
From 175 observations 2003 Aug. 31-2021 Sept. 1, mean residual 1".1.
Nongravitational parameters A1 = -0.24, A2 = +0.2563.
|